Regional Weather Roundup
Issued by NWS

Home | Current Version | Previous Version | Text Only | Print | Product List | Glossary Off
Versions: 1 2 3 4 5 6 7 8 9 10 11 12 13 14 15 16 17 18 19 20 21 22 23 24 25 26 27 28 29 30 31 32 33 34 35 36 37 38 39 40 41 42 43 44 45 46 47 48 49 50

000
ASUS44 KMEG 240610
RWRTN
TENNESSEE HOURLY STATE WEATHER ROUNDUP
NATIONAL WEATHER SERVICE MEMPHIS TN
100 AM CDT FRI OCT 24 2014

TNZ002-004-019-021-049-052-054-088>092-240700-
WEST TENNESSEE

CITY           SKY/WX    TMP DP  RH WIND       PRES   REMARKS
MEMPHIS INTL   PTCLDY    55  47  74 N3        30.13F
NWS MEMPHIS      N/A     51 N/A N/A MISG        N/A
JACKSON        PTCLDY    48  44  86 CALM      30.13R
DYERSBURG      CLEAR     46  36  66 CALM      30.15S
UNION CITY     CLEAR     43  43 100 CALM      30.12S
PARIS          CLEAR     43  39  87 CALM      30.12R
HUNTINGDON     PTCLDY    46  43  90 CALM      30.13R
LEXINGTON      CLEAR     46  46 100 CALM      30.10R
SAVANNAH       CLEAR     46  46 100 CALM      30.11S
$$

TNZ008-025-027-028-033-062-065-066-240700-
NORTH MIDDLE TENNESSEE

CITY           SKY/WX    TMP DP  RH WIND       PRES   REMARKS
NASHVILLE      CLOUDY    52  45  77 NE6       30.10F
CLARKSVILLE    CLOUDY    50  46  86 CALM      30.11S
SMYRNA         CLOUDY    48  45  90 CALM      30.11F
COOKEVILLE     CLEAR     46  46 100 CALM      30.10S
CROSSVILLE     CLOUDY    46  42  86 NW3       30.11S
$$

TNZ061-075-076-078-094-096-097-240700-
SOUTH MIDDLE TENNESSEE

CITY           SKY/WX    TMP DP  RH WIND       PRES   REMARKS
FAYETTEVILLE   CLEAR     46  43  87 W3        30.10R
TULLAHOMA      CLEAR     46  43  87 CALM      30.10F
WINCHESTER     CLEAR     46  45  93 CALM      30.09F
MCMINNVILLE    CLEAR     46  46 100 CALM      30.10S
COLUMBIA         N/A    N/A N/A N/A CALM      30.09R
SHELBYVILLE    CLEAR     46  45  93 CALM      30.11S
$$

TNZ017-018-042-046-047-240700-
NORTHEAST TENNESSEE

CITY           SKY/WX    TMP DP  RH WIND       PRES   REMARKS
TRI CITIES     MOCLDY    40  38  93 CALM      30.13R FOG
ELIZABETHTON   CLEAR     37  36  93 CALM      30.13S
$$

TNZ012-013-036-069-073-074-240700-
CENTRAL EAST TENNESSEE

CITY           SKY/WX    TMP DP  RH WIND       PRES   REMARKS
KNOXVILLE      MOCLDY    46  43  89 E6        30.09F
OAK RIDGE      CLOUDY    47  44  90 CALM      30.11F
GATLINBURG     CLEAR     41  39  93 CALM      30.10F
MORRISTOWN     CLEAR     45  43  93 NE5       30.12S
$$

TNZ083-085-099-240700-
SOUTHEAST TENNESSEE

CITY           SKY/WX    TMP DP  RH WIND       PRES   REMARKS
CHATTANOOGA    CLOUDY    51  47  86 CALM      30.09S
$$

SKY/WX REPORTED AS FAIR MEANS FEW OR NO CLOUDS BELOW
12 THOUSAND FEET.




USA.gov is the U.S. government's official web portal to all federal, state and local government web resources and services.